Lapse_Rate
5.6 5.5 5.7 5.5 5.5 5.5 5.5 5.4 5.3 5.2 5.2 5.4 5.5 5.4 5.4 5.2 5.1 5.4 5.6 5.5 5.3 5.3 5.4 5.4 5.5 5.4 5.3 5.2 5.1 5.1 5.2 5.2 5.1 5.2 5.5 5.7 5.5 5.4 5.3 5.3 5.3 5.3 5.3
5.6 5.7 5.6 5.6 5.4 5.5 5.5 5.4 5.4 5.3 5.3 5.4 5.5 5.4 5.3 5.2 5.3 5.4 5.5 5.2 5.2 5.2 5.2 5.1 5.3 5.5 5.5 5.4 5.3 5.2 5.2 5.1 5.1 5.2 5.5 5.7 5.7 5.5 5.4 5.3 5.2 5.1 5.3
5.9 5.9 5.7 5.4 5.5 5.5 5.5 5.4 5.5 5.2 5.4 5.3 5.4 5.2 5.1 5.3 5.4 5.6 5.2 5.2 5.2 4.9 5.1 4.9 5.4 5.6 5.4 5.3 5.2 5.1 5.2 5.2 5.2 5.1 5.1 5.3 5.4 5.4 5.2 5.2 5.3 5.2 5.2
6.0 5.7 5.5 5.5 5.4 5.4 5.5 5.4 5.5 5.4 5.4 5.2 5.2 5.2 5.2 5.5 5.4 5.1 5.1 5.2 5.0 4.9 5.1 5.2 5.4 5.3 5.3 5.2 5.0 4.9 5.0 5.1 5.4 5.3 5.2 5.1 5.1 5.5 5.6 5.5 5.3 5.2 5.1
5.9 5.9 5.8 5.5 5.4 5.4 5.5 5.4 5.5 5.4 5.4 5.3 5.2 5.3 5.5 5.3 5.0 5.1 5.0 5.0 5.1 5.1 5.2 5.1 5.2 5.1 5.2 5.3 4.9 5.0 5.0 5.1 5.3 5.4 5.4 5.3 5.2 5.3 5.5 5.5 5.5 5.4 5.1
6.0 6.1 5.9 5.7 5.6 5.4 5.6 5.5 5.4 5.5 5.3 5.3 5.4 5.3 5.5 5.3 5.3 5.2 5.0 5.0 5.3 5.2 5.1 5.1 5.2 5.2 5.2 5.0 4.9 5.0 5.1 5.1 5.2 5.3 5.7 5.6 5.5 5.4 5.4 5.2 5.1 5.2 5.4
6.2 6.2 6.0 5.8 5.7 5.7 5.6 5.5 5.4 5.2 5.1 5.2 5.6 5.3 5.5 5.4 5.3 5.2 5.2 5.3 5.4 5.2 5.2 5.1 5.4 5.3 5.2 5.0 4.9 5.0 5.0 5.2 5.3 5.1 5.5 5.8 5.7 5.6 5.6 5.3 5.2 5.1 5.2
6.2 6.3 6.2 6.0 5.9 5.8 5.7 5.5 5.5 5.3 5.4 5.3 5.4 5.2 5.3 5.3 5.2 5.1 5.4 5.4 5.2 5.3 5.1 5.1 5.4 5.3 5.2 5.1 4.9 4.8 5.1 5.1 5.3 5.2 5.5 5.7 5.7 5.8 5.7 5.5 5.4 5.1 4.8
6.3 6.1 6.1 6.1 6.0 5.9 5.4 5.5 5.2 5.2 5.4 5.3 5.1 5.0 5.3 5.3 5.0 5.1 5.3 5.3 5.1 5.0 5.1 5.1 5.3 5.2 5.3 5.0 5.0 4.9 5.1 5.0 5.2 5.4 5.4 5.6 5.5 5.6 5.6 5.6 5.4 5.3 5.1
5.9 5.9 5.9 6.0 5.9 5.6 5.4 5.5 4.8 4.8 4.9 5.0 5.1 5.1 5.2 5.2 5.1 5.2 5.4 5.4 5.0 5.0 5.1 5.2 5.3 5.3 5.3 5.1 5.0 4.9 4.9 4.9 5.0 5.1 5.2 5.4 5.5 5.5 5.6 5.5 5.5 5.4 5.4
5.9 5.8 5.8 5.9 5.9 5.2 5.3 5.6 5.3 5.0 4.8 5.4 5.1 5.2 5.0 5.1 5.3 5.3 5.5 5.3 5.2 5.0 5.0 5.2 5.4 5.3 5.2 5.1 4.9 4.8 4.8 4.9 5.0 5.0 5.1 5.1 5.3 5.3 5.3 5.4 5.4 5.4 5.4
6.0 6.1 6.3 6.1 6.0 5.3 5.1 5.0 5.3 5.3 5.6 5.6 5.2 5.0 5.1 5.0 5.3 5.3 5.5 5.4 5.2 5.0 5.1 5.3 5.3 5.3 5.1 4.9 4.9 4.8 4.9 4.9 5.0 5.1 5.0 5.1 5.2 5.2 5.3 5.3 5.3 5.2 5.2
5.9 6.2 6.3 6.1 6.0 5.4 5.1 5.0 5.0 5.1 5.4 5.5 5.2 5.0 5.0 5.0 5.2 5.3 5.4 5.4 5.4 5.2 5.2 5.2 5.2 5.4 5.3 5.1 4.9 4.8 5.0 5.2 5.2 5.3 5.1 5.1 5.2 5.3 5.2 5.3 5.3 5.2 5.2
5.9 6.3 6.3 6.2 5.8 5.8 5.4 5.2 5.2 5.2 5.4 5.3 5.2 5.2 5.1 5.0 5.4 5.4 5.4 5.5 5.4 5.2 5.3 5.3 5.2 5.3 5.4 5.2 5.1 5.1 5.0 5.1 5.2 5.1 5.0 5.3 5.4 5.5 5.2 5.1 5.5 5.4 5.3
5.8 6.2 6.4 6.4 6.5 6.2 5.9 5.5 5.1 5.0 5.1 5.1 5.3 5.1 5.2 5.0 5.4 5.6 5.5 5.5 5.3 5.2 5.3 5.3 5.3 5.3 5.2 5.2 5.0 5.1 5.3 5.5 5.3 5.1 5.1 5.2 5.4 5.2 5.3 5.3 5.3 5.4 5.5
5.6 6.1 6.3 6.5 6.8 6.6 6.3 5.6 5.2 5.0 5.1 5.4 5.4 5.1 5.0 5.4 5.4 5.4 5.4 5.2 5.1 5.1 5.2 5.3 5.3 5.3 5.2 5.3 5.2 5.3 5.2 5.4 5.5 5.4 5.4 5.3 5.4 5.2 5.1 5.2 5.3 5.4 5.4
5.8 6.0 6.3 6.5 6.7 6.6 6.4 6.0 5.4 5.0 4.8 5.0 5.3 4.8 4.9 5.1 5.0 5.3 5.2 5.3 5.0 5.1 5.1 5.2 5.3 5.3 5.2 5.2 5.2 5.3 5.5 5.6 5.7 5.6 5.4 5.3 5.2 5.4 5.2 5.4 5.3 5.2 5.3
6.0 6.0 6.2 6.2 6.2 6.4 6.3 6.1 5.7 5.4 4.7 4.9 4.9 4.7 4.9 5.1 5.2 5.2 5.1 5.6 5.4 5.4 5.4 5.5 5.4 5.4 5.4 5.3 5.3 5.3 5.3 5.6 5.7 5.5 5.3 5.4 5.4 5.5 5.2 5.3 5.2 5.3 5.1
6.0 6.2 6.4 6.3 6.1 6.1 6.4 6.3 6.2 5.9 5.5 5.5 5.3 5.4 5.3 5.5 5.6 5.5 5.5 5.9 5.9 5.5 5.5 5.4 5.2 5.2 5.2 5.3 5.5 5.3 5.2 5.4 5.6 5.6 5.6 5.4 5.4 5.5 5.5 5.5 5.3 5.4 5.3
6.2 6.1 6.4 6.5 6.2 6.1 6.3 6.4 6.2 6.3 6.2 5.8 5.9 5.7 5.7 6.0 6.1 5.9 5.8 5.9 5.6 5.5 5.5 5.3 5.3 5.3 5.2 5.4 5.5 5.4 5.5 5.4 5.4 5.5 5.6 5.6 5.5 5.3 5.3 5.3 5.3 5.7 5.7
6.4 6.3 6.2 6.3 6.2 6.1 6.2 6.1 5.9 5.9 6.2 6.3 6.3 6.2 6.1 6.1 6.2 6.2 6.0 5.8 5.6 5.6 5.6 5.3 5.4 5.4 5.2 5.4 5.7 5.5 5.4 5.4 5.5 5.6 5.6 5.7 5.6 5.5 5.3 5.1 5.1 5.3 5.6
6.4 6.3 6.1 6.1 6.1 6.1 6.0 6.1 6.2 6.1 6.1 5.9 6.0 6.0 6.0 5.9 5.9 5.9 5.9 5.9 5.9 6.0 5.8 5.5 5.5 5.6 5.7 5.7 6.1 5.8 5.7 5.6 5.5 5.6 5.5 5.5 5.4 5.5 5.4 5.3 5.2 5.1 5.2
6.4 6.3 6.2 6.2 6.3 6.3 6.4 6.1 5.9 6.0 5.9 6.1 6.0 6.0 6.0 6.0 5.9 6.0 5.9 5.9 6.0 6.2 5.9 5.8 5.8 5.9 5.9 6.0 5.9 6.1 6.1 6.0 5.9 5.7 5.6 5.6 5.5 5.5 5.4 5.5 5.3 4.9 4.7
6.7 6.5 6.1 5.9 6.2 6.2 5.9 6.2 6.1 6.0 6.2 6.2 6.2 6.0 6.0 6.1 6.2 6.3 6.2 6.0 5.8 5.8 5.8 6.0 6.0 5.9 5.9 5.9 6.0 5.9 5.9 6.2 6.3 6.5 5.7 5.5 5.6 5.6 5.5 5.4 5.4 5.2 5.2
6.6 6.6 6.5 5.9 5.9 6.1 6.1 6.1 6.2 6.1 6.0 5.9 5.9 5.8 5.8 5.7 5.6 5.8 5.9 6.0 6.2 6.1 6.2 6.3 6.4 6.5 6.4 6.1 6.0 6.0 5.9 5.9 6.0 6.1 6.3 5.7 5.9 5.9 5.7 5.3 5.2 5.3 5.5
6.7 6.5 6.4 6.2 6.0 6.0 6.1 6.2 6.3 6.3 6.2 6.2 6.0 6.0 6.1 6.0 6.0 6.1 6.1 6.0 6.0 5.9 6.0 6.1 6.2 6.3 6.3 6.3 6.5 6.4 6.3 6.2 6.0 6.1 6.3 6.0 5.7 5.5 5.6 5.5 5.3 5.2 5.2
Wind_Speed
4 5 3 2 6 8 13 16 20 22 26 25 24 24 22 22 20 20 20 18 15 13 15 15 16 15 13 11 9 9 9 10 10 11 11 12 11 10 12 12 12 14 15
4 5 3 2 7 10 13 15 19 22 25 24 22 22 22 21 20 18 17 16 12 12 15 15 15 14 13 12 10 9 9 9 9 9 10 10 10 11 12 12 9 15 16
3 3 2 2 6 11 15 16 20 22 25 24 22 21 21 19 18 18 16 14 13 12 13 14 15 14 14 12 11 10 8 7 7 8 7 8 11 10 11 11 13 14 15
5 4 3 1 7 12 16 17 19 23 23 23 21 18 18 17 17 16 14 13 13 14 15 16 15 15 15 13 13 11 8 8 6 5 5 6 10 9 11 11 11 13 14
6 9 8 5 12 15 16 18 21 21 22 22 19 15 16 14 14 13 13 13 14 15 15 16 16 16 15 13 11 8 9 7 5 3 6 6 5 8 8 10 11 11 10
8 11 9 5 17 17 17 19 21 22 22 20 16 14 14 13 11 12 14 15 16 16 15 16 15 13 12 10 9 5 3 3 4 5 5 7 5 7 7 8 8 9 9
8 12 11 10 19 17 18 19 23 23 21 17 15 14 14 12 11 14 17 16 16 17 15 13 12 10 8 6 4 1 3 2 2 4 5 4 7 6 6 7 8 8 8
9 12 12 11 14 15 18 20 23 24 21 16 12 13 12 13 16 11 16 16 16 15 13 11 9 8 6 4 3 4 3 6 4 2 4 4 6 3 6 7 6 7 8
11 11 13 11 7 13 16 18 25 24 20 15 10 10 10 19 17 13 15 14 14 12 11 9 7 6 5 5 5 6 5 5 3 2 2 2 4 2 4 5 6 6 7
9 9 11 10 9 12 13 20 21 21 15 12 6 6 11 15 15 14 13 13 12 11 9 7 5 3 3 4 4 5 4 3 1 2 2 2 4 3 4 3 5 7 7
7 8 10 11 14 23 26 25 26 24 13 14 5 10 12 11 13 12 11 11 9 8 7 5 2 2 2 2 4 4 3 2 2 4 3 6 6 4 4 6 5 5 6
6 8 9 10 13 16 10 10 16 17 11 13 5 11 11 10 10 9 11 8 7 6 4 3 2 3 3 3 3 5 6 5 4 4 5 6 9 8 7 7 7 7 7
5 5 7 7 9 14 10 10 10 10 9 9 9 10 11 11 6 6 5 5 3 4 1 1 2 2 3 5 6 7 8 8 5 5 5 8 12 12 10 10 9 9 9
5 5 5 7 6 10 13 13 14 11 10 9 9 8 9 4 4 3 3 3 1 1 2 2 3 5 5 5 7 9 10 9 8 6 6 11 14 15 14 13 12 11 11
6 6 5 6 6 8 9 9 10 11 11 14 6 8 9 5 2 3 2 2 2 1 2 3 5 6 7 8 7 8 9 11 10 8 8 11 16 17 17 16 15 13 12
6 7 6 5 7 7 6 8 8 12 19 22 9 9 9 3 2 2 2 3 4 3 3 4 5 7 7 9 9 9 10 9 10 11 9 8 15 18 20 20 13 12 16
7 7 8 6 7 7 6 7 8 7 10 12 16 15 11 7 5 4 4 4 5 5 5 5 7 7 7 8 8 9 9 11 12 12 12 10 10 18 21 21 18 20 19
9 9 8 7 7 7 6 6 7 9 7 8 6 8 8 6 6 7 5 5 5 5 4 4 5 5 6 7 8 8 7 10 12 13 13 12 11 11 15 22 21 20 23
11 10 10 9 8 8 7 6 7 7 6 7 8 9 9 8 8 7 6 7 7 6 5 5 5 4 7 8 9 8 7 7 8 11 11 11 12 12 12 11 21 23 23
11 11 10 9 8 7 4 4 4 5 7 9 11 11 11 10 10 8 7 8 7 5 5 5 6 6 7 6 8 9 9 9 8 8 9 12 12 13 13 12 11 15 21
10 11 11 11 9 7 5 4 4 4 6 5 9 11 11 10 9 8 7 6 7 4 8 7 4 4 3 2 5 6 7 7 8 5 5 6 7 9 10 10 11 10 12
11 12 11 11 11 8 7 5 4 3 4 4 7 10 10 10 10 10 8 6 5 3 9 6 3 2 3 2 2 5 5 4 1 4 4 5 6 6 6 8 9 10 8
12 12 11 11 11 10 9 6 4 2 3 3 4 5 8 11 11 12 11 8 5 6 5 5 4 5 4 2 6 3 4 4 8 1 3 4 4 5 5 9 9 9 8
13 11 10 10 11 10 10 8 9 7 6 4 4 5 6 10 12 13 12 11 7 5 7 6 5 5 5 5 4 3 5 5 4 7 3 5 5 6 6 5 7 9 9
13 12 12 10 10 9 9 10 8 9 6 4 4 5 6 6 10 12 12 10 8 7 7 7 7 6 5 6 5 4 4 4 5 5 8 7 7 3 4 5 6 6 9
11 12 11 12 11 11 11 11 12 11 9 6 6 6 6 5 5 7 8 9 9 8 8 7 8 9 7 6 5 5 6 6 6 5 6 7 8 5 4 3 4 5 7
Wind_Direction
88 97 58 30 105 129 136 123 126 124 124 123 120 116 112 111 111 112 115 117 116 117 122 120 116 121 119 125 127 116 110 108 106 107 112 119 124 124 117 119 134 125 129
99 92 46 6 119 135 138 124 125 129 128 125 121 115 114 113 114 112 116 117 117 123 129 124 120 120 116 117 120 113 106 103 104 110 118 123 125 120 115 116 124 113 127
69 63 31 5 136 143 142 140 130 132 130 128 123 116 116 117 116 115 114 113 119 127 123 118 119 120 118 117 113 103 103 98 99 96 121 131 118 123 121 122 116 125 127
21 352 300 239 172 148 146 143 137 136 130 130 125 118 116 117 117 116 117 119 118 120 124 121 120 120 120 118 113 105 92 78 82 90 102 117 122 125 128 130 126 126 131
24 350 334 222 172 152 151 146 144 143 137 134 126 118 118 120 119 123 133 121 125 122 123 122 118 120 117 117 113 113 103 99 97 112 100 96 120 123 128 130 135 141 159
18 5 20 140 159 152 154 149 144 143 138 134 131 124 125 124 127 134 143 128 124 125 122 122 121 122 119 116 115 120 117 90 137 98 101 103 114 110 143 137 138 144 153
35 28 40 105 144 148 155 155 143 138 137 141 132 133 128 129 123 128 128 132 125 126 126 121 120 118 106 99 98 182 229 191 151 108 94 91 97 146 148 145 152 150 157
45 44 45 90 135 150 155 154 145 140 128 115 123 131 133 118 101 124 130 126 128 127 122 120 122 115 96 63 33 5 189 183 172 103 94 91 82 91 153 170 157 159 159
49 49 47 68 113 152 147 153 144 119 107 82 97 125 135 134 136 140 125 122 126 125 127 123 114 102 82 58 46 38 71 138 164 76 120 127 113 118 129 132 151 170 166
51 54 64 60 75 102 117 99 109 112 117 128 69 100 124 123 126 128 125 128 123 122 124 117 108 91 62 47 15 20 42 152 224 202 191 139 165 163 152 156 169 178 177
65 58 67 69 76 108 117 131 140 136 146 124 59 75 105 106 119 123 122 125 115 117 118 112 97 50 6 9 331 334 288 333 271 241 238 160 194 200 185 180 189 192 191
75 61 68 63 85 103 99 120 125 146 152 113 74 70 80 80 106 106 118 112 112 105 99 78 22 341 291 327 307 277 296 299 284 269 248 186 202 211 205 199 198 204 198
99 80 82 69 83 112 134 104 111 129 103 101 104 86 80 47 71 79 94 89 81 70 84 19 314 310 345 337 323 313 309 300 293 266 248 210 215 217 218 210 204 205 207
154 127 115 91 90 100 116 122 127 119 112 83 45 54 53 77 60 50 35 61 43 32 342 342 321 329 324 311 309 317 309 298 289 288 252 215 224 224 224 218 214 211 210
170 150 150 124 111 110 116 123 121 120 111 103 64 76 321 23 16 32 6 337 314 309 315 325 314 314 312 313 311 310 313 290 289 282 276 222 224 227 230 228 217 216 219
184 162 164 164 131 129 124 135 123 129 124 114 138 255 245 260 295 328 307 294 293 284 289 302 292 296 300 301 296 290 295 293 280 280 273 257 230 228 231 234 227 231 226
195 175 177 178 165 154 147 149 145 138 160 158 187 217 211 241 242 271 286 293 310 283 276 270 284 279 278 286 284 286 282 280 276 271 271 253 245 227 230 230 228 210 229
199 194 187 183 189 178 169 169 164 169 181 217 236 229 251 265 278 275 281 298 326 305 279 272 290 297 294 293 294 292 289 282 281 270 266 260 251 249 227 228 228 225 219
200 199 195 190 188 193 182 184 200 212 233 242 241 253 260 257 258 262 267 283 294 291 278 286 284 285 298 298 294 289 279 274 269 266 265 263 257 251 249 229 226 233 227
200 197 203 195 188 199 180 195 225 221 218 232 242 245 249 252 253 252 261 276 292 296 294 288 287 295 282 290 305 296 283 269 257 255 259 261 256 254 252 250 243 239 228
196 197 198 198 188 182 193 216 250 247 254 230 232 241 252 254 245 243 260 267 269 292 301 298 313 303 294 313 345 298 291 274 270 263 262 265 270 269 260 246 251 246 241
194 197 200 206 195 191 197 216 214 194 224 241 251 242 240 242 245 241 241 250 226 250 266 261 211 274 269 233 233 294 304 302 244 267 256 270 284 275 261 247 237 243 250
195 198 200 204 198 195 200 196 200 215 245 235 229 244 241 246 247 242 245 247 242 238 264 268 240 233 282 244 228 263 301 304 323 224 272 278 292 275 263 245 234 240 245
208 203 206 197 197 194 191 207 213 231 243 249 256 261 263 254 251 246 245 243 244 242 250 250 245 241 232 283 274 238 255 286 302 304 284 307 304 282 268 245 227 225 227
198 201 206 199 195 196 196 208 218 232 237 259 259 267 250 249 243 241 236 234 233 241 244 245 247 241 242 267 267 275 271 266 261 267 301 319 316 315 287 272 213 227 222
200 203 207 204 204 200 200 205 216 230 233 237 246 261 261 262 253 239 239 237 242 244 251 254 250 242 240 242 255 250 265 279 285 272 282 304 317 326 325 308 243 215 227